{"data":{"norad_id":32956,"intl_designator":"2008-025D","name":"COSMOS 2439","alt_names":[],"object_type":"PAYLOAD","status":"ACTIVE","operator":null,"country":"CIS","launch_date":"2008-05-23","launch_site_code":"PLMSC","launch_vehicle":null,"mission":null,"orbit_class":"UNKNOWN","rcs_meters":0.8827,"size_class":null,"mass_kg":null,"dimensions":null,"purposes":[],"wikipedia_slug":null,"has_3d_model":false,"image_url":null,"decayed_at":null,"tle_current":{"epoch":"2026-09-20T03:27:25.952832Z","epoch_age_seconds":42014,"freshness":"FRESH","line1":"1 32956U 08025D   26263.14405038  .00000037  00000+0  19225-3 0  9995","line2":"2 32956  82.5049 298.7764 0022055 107.0987 253.2511 12.43071894831510","mean_motion":12.43071894,"eccentricity":0.0022055,"inclination_deg":82.5049,"raan_deg":298.7764,"arg_perigee_deg":107.0987,"mean_anomaly_deg":253.2511,"bstar":0.00019225,"rev_number":83151,"period_min":115.84205281694,"perigee_km":1476.2467388029,"apogee_km":1510.9690054338,"semimajor_km":7871.7448721183,"source":"CELESTRAK","updated_at":"2026-09-20T09:00:13.694281Z"}}}